Berlin, NH

8:19 PM EDT on October 23, 2017 (GMT -0400)
Berlin Municipal

Weather History for KBML - May, 2013

Change the Weather History Date:

Wednesday, May 1, 2013

  Actual Average Record
Temperature  
Mean Temperature 54 °F -  
Max Temperature 79 °F 58 °F 84 °F (2004)
Min Temperature 30 °F 29 °F 21 °F (2008)
Degree Days  
Heating Degree Days 10    
Growing Degree Days 4 (Base 50)    
Moisture  
Dew Point 33 °F    
Average Humidity 53    
Maximum Humidity 92    
Minimum Humidity 20    
Precipitation  
Precipitation 0.00 in - - ()
Sea Level Pressure  
Sea Level Pressure 30.42 in    
Wind  
Wind Speed 1 mph (SSW)    
Max Wind Speed 10 mph    
Max Gust Speed 20 mph    
Visibility 10 miles    
Events      
Averages and records for this station are not official NWS values.
T = Trace of Precipitation, MM = Missing Value Source: NWS Daily Summary

Daily Weather History Graph

Daily Weather History Graph

Search for Another Location

Airport or City:

Trip Planner

Search our weather history database for the weather conditions in past years. The results will help you decide how hot, cold, wet, or windy it might be!

Date:

Astronomy

May. 01, 2013 Rise Set
Actual Time 5:34 AM EDT 7:49 PM EDT
Civil Twilight 5:02 AM EDT 8:21 PM EDT
Nautical Twilight 4:22 AM EDT 9:01 PM EDT
Astronomical Twilight 3:38 AM EDT 9:46 PM EDT
Moon 12:57 AM EDT (5/1) 11:09 AM EDT (5/1)
Length of Visible Light 15h 19m
Length of Day
14h 14m
Waning Gibbous, 59% of the Moon is Illuminated
May 1
Waning Gibbous
May 2
Last Quarter
May 9
New
May 18
First Quarter
May 25
Full

Hourly Weather History & Observations

Time (EDT) Temp. Dew Point Humidity Pressure Visibility Wind Dir Wind Speed Gust Speed Precip Events Conditions
12:52 AM 36.0 °F 32.0 °F 86% 30.37 in 10.0 mi Calm Calm - N/A   Clear
1:52 AM 36.0 °F 32.0 °F 86% 30.38 in 10.0 mi Calm Calm - N/A   Clear
2:52 AM 32.0 °F 30.0 °F 92% 30.40 in 10.0 mi Calm Calm - N/A   Clear
3:52 AM 30.0 °F 28.0 °F 92% 30.42 in 10.0 mi Calm Calm - N/A   Clear
4:52 AM 30.9 °F 28.0 °F 89% 30.44 in 10.0 mi Calm Calm - N/A   Clear
5:52 AM 30.9 °F 28.9 °F 92% 30.45 in 9.0 mi Calm Calm - N/A   Clear
6:52 AM 37.0 °F 32.0 °F 82% 30.46 in 10.0 mi Calm Calm - N/A   Clear
7:52 AM 46.0 °F 35.1 °F 66% 30.47 in 10.0 mi Calm Calm - N/A   Clear
8:52 AM 55.0 °F 34.0 °F 45% 30.47 in 10.0 mi Calm Calm - N/A   Clear
9:52 AM 62.1 °F 32.0 °F 32% 30.46 in 10.0 mi Calm Calm - N/A   Clear
10:52 AM 71.1 °F 28.9 °F 21% 30.45 in 10.0 mi NNW 3.5 mph - N/A   Clear
11:52 AM 72.0 °F 32.0 °F 23% 30.43 in 10.0 mi SW 4.6 mph - N/A   Clear
12:52 PM 73.9 °F 32.0 °F 21% 30.41 in 10.0 mi Variable 4.6 mph - N/A   Clear
1:52 PM 73.9 °F 33.1 °F 22% 30.39 in 10.0 mi NW 5.8 mph - N/A   Mostly Cloudy
2:52 PM 79.0 °F 34.0 °F 20% 30.38 in 10.0 mi Variable 6.9 mph - N/A   Scattered Clouds
3:52 PM 75.0 °F 34.0 °F 22% 30.38 in 10.0 mi SSE 4.6 mph - N/A   Mostly Cloudy
4:52 PM 75.0 °F 32.0 °F 21% 30.38 in 10.0 mi SSW 5.8 mph - N/A   Overcast
5:52 PM 75.0 °F 33.1 °F 22% 30.39 in 10.0 mi Calm Calm - N/A   Overcast
6:52 PM 71.1 °F 30.9 °F 23% 30.40 in 10.0 mi SSE 10.4 mph 19.6 mph N/A   Mostly Cloudy
7:52 PM 64.9 °F 33.1 °F 31% 30.41 in 10.0 mi SSE 5.8 mph - N/A   Clear
8:52 PM 55.0 °F 37.0 °F 51% 30.43 in 10.0 mi Calm Calm - N/A   Clear
9:52 PM 46.9 °F 37.0 °F 68% 30.44 in 10.0 mi Calm Calm - N/A   Clear
10:52 PM 44.1 °F 37.0 °F 76% 30.44 in 10.0 mi Calm Calm - N/A   Clear
11:52 PM 39.9 °F 35.1 °F 83% 30.44 in 10.0 mi Calm Calm - N/A   Clear